Wind_Speed
11 12 12 11 11 9 4 1 1 2 2 3 2 1 1 1 3 3 6 5 3 1 2 5 6 4 4 6 7 6 6 2 1 2 1 3 12 12 11 14 15 18 20 20 18 19 20 20 22 22 20 20 19 19 22 24 24 23 22 21 20 20 20 20 20 20 20 20 20 18 17 16 16 15 16 16 15 14 13 13 12 11 10 10 10 10 10 9 8 8 7 7 6 5 5 5 5
13 13 12 11 9 5 0 1 2 2 4 3 2 1 1 2 4 3 5 4 2 2 5 8 8 7 7 10 7 3 6 6 2 2 3 11 15 11 12 15 18 20 20 20 19 19 19 20 21 21 21 20 19 20 23 24 24 23 22 21 20 20 19 19 19 19 19 19 18 17 16 15 15 15 15 15 14 13 12 11 10 10 10 10 10 10 9 8 8 7 7 6 5 5 4 4 5
14 14 14 11 4 1 1 3 2 1 4 2 2 2 1 3 3 4 4 5 6 7 8 7 6 5 5 7 4 3 3 4 6 5 6 13 11 10 15 16 18 20 20 20 19 20 19 18 19 20 20 21 21 20 22 24 24 23 21 20 19 19 18 18 17 17 18 17 17 16 16 15 15 14 14 13 12 12 10 10 9 9 9 9 9 9 8 8 7 6 6 5 5 4 4 4 5
15 14 14 9 2 2 2 2 2 3 3 3 0 3 2 3 5 6 6 7 7 5 5 4 4 3 4 7 3 3 4 4 6 5 6 8 10 15 18 17 18 18 20 19 19 20 19 19 18 18 20 20 22 22 23 23 23 22 21 20 19 18 17 17 17 17 17 16 16 16 16 15 14 14 13 12 12 10 9 9 8 8 8 8 8 8 8 7 6 5 5 4 4 4 4 4 4
15 14 11 4 2 1 1 1 2 3 3 4 2 1 2 4 7 8 6 6 3 3 3 3 3 2 5 6 1 2 4 4 4 5 6 8 14 20 18 18 18 17 19 19 19 20 20 20 18 19 20 20 21 22 23 23 23 21 20 19 18 17 17 17 17 17 16 16 16 15 15 14 14 13 12 11 10 9 8 7 7 8 8 7 7 7 6 6 5 4 3 4 3 3 4 4 4
16 11 6 1 2 1 1 2 2 2 2 4 4 3 4 5 7 9 7 6 6 5 4 4 4 4 6 3 3 3 2 4 4 5 9 13 19 21 18 18 18 17 17 19 20 20 22 20 18 19 20 22 22 22 22 22 21 20 19 18 17 16 16 15 15 15 15 15 14 14 13 13 13 12 11 9 8 8 7 6 7 7 7 6 6 5 5 5 4 3 3 3 4 4 4 4 4
15 7 2 2 1 1 2 3 3 1 1 2 4 6 6 5 7 9 7 5 6 6 4 4 6 7 5 1 3 4 2 6 5 7 13 19 21 21 18 17 18 17 17 19 19 20 22 20 18 19 20 22 22 22 21 20 19 18 17 17 16 15 14 14 14 13 13 13 13 13 12 12 11 10 9 8 8 7 6 6 6 6 6 5 4 4 4 3 3 3 3 4 5 5 5 5 5
12 4 1 2 0 2 3 2 2 2 2 2 3 7 8 7 7 7 6 3 3 3 5 5 5 6 3 2 4 4 6 8 7 12 20 22 22 21 18 16 17 18 17 20 19 19 20 19 19 18 19 20 20 20 19 19 18 16 16 15 15 14 13 13 13 13 13 13 12 12 12 11 10 10 9 8 7 7 6 6 6 5 5 4 3 3 3 2 2 3 3 4 5 5 5 6 6
6 2 1 2 1 2 3 2 1 1 2 4 4 6 7 7 5 6 7 5 5 5 5 4 3 6 3 4 5 3 7 11 13 18 22 23 22 20 18 17 17 18 18 19 20 19 19 19 19 18 19 19 18 18 18 17 16 16 15 14 14 14 13 13 13 13 13 13 12 12 11 10 10 9 8 8 7 7 7 6 5 5 4 3 2 2 2 2 3 3 4 5 5 6 6 6 7
3 2 1 1 1 4 3 2 1 1 2 4 4 7 7 5 5 6 8 8 6 5 4 5 6 7 7 6 3 1 8 16 19 20 21 21 20 18 18 17 17 18 17 19 20 19 20 20 19 19 19 17 18 17 17 17 16 16 14 14 14 14 13 13 13 13 13 12 12 11 11 10 10 9 8 8 7 7 6 6 5 3 2 1 1 2 2 3 3 4 5 6 6 7 7 8 8
3 1 1 2 3 3 2 1 2 2 2 4 4 4 5 5 6 6 7 8 5 5 5 6 8 7 7 5 2 5 14 19 20 20 20 20 17 17 19 19 17 17 16 18 20 20 20 19 18 19 18 17 17 17 17 17 16 15 14 14 14 13 13 13 13 12 12 11 11 10 9 9 9 8 8 8 7 7 6 5 4 2 1 0 1 2 3 3 4 5 6 7 8 8 8 9 9
1 1 2 3 2 3 4 3 3 4 3 3 4 3 3 6 7 7 8 8 6 6 4 2 6 6 6 3 2 8 15 17 18 20 19 18 15 16 20 19 18 17 17 17 19 20 20 19 18 18 18 17 17 17 17 16 16 15 15 14 13 13 12 12 12 11 11 10 9 9 8 8 7 7 7 6 6 5 4 3 3 2 1 1 2 3 3 4 5 6 7 8 9 9 9 9 10
2 3 4 2 1 3 4 4 4 5 3 3 4 2 5 5 7 10 8 7 7 5 2 3 7 5 5 3 4 7 11 14 18 19 19 16 14 16 19 19 18 18 18 18 18 19 19 19 18 18 17 16 16 17 16 16 15 15 15 14 13 12 12 11 11 11 10 9 9 8 8 7 7 6 5 4 4 4 3 3 3 2 2 2 3 3 5 6 7 8 9 10 11 11 11 10 10
3 2 4 2 1 4 4 4 4 5 3 4 3 4 5 1 4 9 10 10 4 2 4 6 7 6 5 4 4 4 8 16 19 19 18 15 14 16 18 18 18 19 19 18 18 18 18 18 18 17 16 16 17 17 16 16 15 14 14 13 12 11 11 11 10 10 9 9 8 8 7 6 6 5 4 4 4 4 4 4 3 2 3 4 4 5 6 7 8 9 9 10 12 12 13 12 11
5 1 4 3 2 3 2 3 5 6 4 5 5 6 4 2 4 5 7 9 3 3 7 6 3 3 4 6 5 7 13 21 20 19 18 15 15 16 17 18 17 18 19 18 18 18 18 18 17 18 17 17 18 17 17 15 13 13 13 12 11 10 10 10 10 9 9 8 8 7 6 5 5 5 5 5 5 5 5 6 5 4 4 4 5 6 7 8 8 9 10 11 12 13 13 13 13
4 2 3 2 3 3 2 3 4 4 4 4 6 7 5 3 5 2 2 6 7 6 3 4 2 1 5 5 6 14 22 24 22 20 18 16 16 16 16 17 17 18 18 17 18 19 19 18 17 17 17 17 17 16 16 14 13 13 12 11 11 10 10 10 9 9 8 8 7 7 6 6 6 5 6 6 7 7 7 7 6 5 5 6 6 7 7 9 9 11 11 12 13 13 13 12 13
3 2 1 2 3 4 4 5 5 4 4 6 7 6 7 5 3 2 4 7 11 8 0 2 0 2 7 5 13 23 26 25 23 22 20 19 18 17 17 17 18 18 17 17 19 19 19 19 18 17 17 17 16 16 15 15 13 13 12 12 11 11 10 10 9 8 8 8 7 7 7 7 6 6 6 6 7 7 7 7 7 7 7 8 8 9 9 10 11 11 12 12 13 13 13 12 12
3 2 2 2 4 5 6 8 7 5 7 10 8 7 9 9 6 4 7 7 8 7 2 4 4 5 9 13 22 26 26 26 24 24 21 19 19 18 18 18 19 19 19 18 19 20 20 20 19 18 17 17 16 16 16 15 14 13 13 12 12 11 10 10 10 9 8 8 8 8 7 7 6 6 6 6 6 7 8 8 9 9 9 10 10 10 10 10 11 12 11 11 12 11 12 12 12
3 3 2 3 5 5 6 9 7 6 10 11 9 9 8 8 9 6 7 7 7 6 3 4 7 7 11 17 24 24 24 24 23 24 20 19 18 18 18 19 20 20 20 20 21 21 21 21 21 20 19 18 17 17 16 16 14 14 14 13 12 12 11 11 11 10 9 9 8 8 7 6 6 6 6 6 7 8 9 10 10 10 11 12 12 12 11 11 11 12 11 10 10 10 11 12 11
3 3 2 6 6 5 5 10 9 7 12 12 10 9 5 5 8 6 9 10 6 6 6 6 7 8 11 15 20 22 22 21 22 22 19 19 18 18 19 20 21 22 22 21 21 22 23 23 22 21 21 20 19 18 17 16 15 14 14 14 13 13 12 12 12 11 10 9 8 7 7 6 6 6 6 7 9 10 11 11 11 11 12 12 12 12 12 12 12 11 10 9 9 10 11 11 11
2 3 5 6 4 4 5 11 10 8 13 13 11 9 6 5 5 6 12 11 4 6 9 10 13 14 14 14 17 21 19 19 20 19 19 18 18 18 19 21 23 23 23 22 22 23 23 23 23 23 21 21 20 19 18 18 17 15 15 15 14 13 13 13 12 12 11 9 8 7 7 7 7 7 8 9 10 11 11 11 11 10 11 11 11 12 12 12 11 10 9 9 9 10 11 11 11
2 3 6 7 4 4 6 10 11 10 11 11 13 11 8 7 5 9 14 10 5 8 10 10 15 17 17 17 17 18 17 17 18 18 19 19 19 20 20 22 22 22 22 22 23 23 23 23 24 23 23 22 21 20 19 19 18 17 17 16 15 14 14 13 13 12 11 10 9 8 8 7 7 8 9 10 10 11 10 10 9 9 9 9 10 10 11 11 10 10 9 9 9 10 11 11 11
2 4 5 8 7 6 6 10 13 13 12 12 14 10 9 8 5 9 12 5 4 5 9 10 12 17 20 19 18 16 15 15 17 20 20 20 21 21 22 23 23 23 23 23 24 23 23 23 23 24 24 23 22 21 20 20 20 19 18 17 17 16 15 15 14 13 12 11 10 10 9 9 9 8 8 9 9 9 10 9 8 8 8 8 9 10 10 10 10 10 10 10 10 11 11 12 11
3 5 6 7 10 9 8 12 14 16 16 12 10 10 12 11 7 9 8 3 1 7 10 10 11 17 19 17 16 16 15 16 18 22 23 23 24 24 23 23 24 24 23 23 24 24 24 24 24 25 24 24 23 23 22 22 21 20 19 18 18 17 16 16 15 14 13 12 11 11 10 10 10 9 9 9 9 10 10 9 9 9 8 9 9 10 11 11 11 11 10 10 10 11 12 12 11
4 6 6 5 7 8 10 13 14 14 11 9 11 12 12 8 7 9 5 0 5 10 12 11 13 15 15 14 14 14 14 16 18 20 21 22 23 22 22 22 22 23 24 25 24 25 26 26 26 26 25 25 24 24 23 23 22 21 21 20 19 18 17 16 15 15 14 13 12 12 12 11 11 11 10 10 10 11 11 10 10 10 9 9 10 10 11 12 12 11 11 11 11 11 12 13 12
6 4 2 2 5 9 12 13 14 12 8 10 13 10 6 5 8 5 3 5 8 11 13 12 13 14 13 13 13 13 12 15 18 19 21 21 21 21 21 22 23 24 26 25 25 26 27 27 26 26 26 25 25 25 25 24 23 23 22 21 20 19 19 17 16 16 15 14 14 13 13 13 12 12 12 11 12 13 12 12 11 11 10 10 10 11 11 12 13 12 12 13 13 13 13 13 13
5 1 4 5 7 8 12 13 11 10 8 12 15 8 5 7 6 2 4 8 10 12 14 12 13 13 13 12 11 12 12 15 19 20 19 19 20 21 22 23 24 25 26 25 26 26 26 27 27 26 26 25 25 25 26 25 24 24 23 22 21 20 19 18 18 17 16 16 15 14 14 14 14 13 13 13 14 14 14 13 13 12 12 11 11 11 12 12 13 14 14 15 16 15 13 11 13
1 5 8 7 8 8 10 13 11 9 6 9 12 8 5 4 2 3 7 10 12 14 14 13 13 12 12 12 11 10 11 16 20 18 17 18 20 22 22 24 25 24 25 27 27 26 26 27 26 26 25 25 25 25 26 25 25 24 23 22 22 21 19 19 19 18 18 16 15 15 15 15 15 15 15 15 15 15 16 15 14 14 13 12 12 13 13 14 14 14 15 14 14 13 12 11 12
2 7 8 6 8 7 6 9 11 10 6 9 13 8 3 7 5 4 9 11 13 13 14 13 12 11 10 11 10 9 12 16 18 17 19 21 21 22 23 25 25 24 26 27 26 26 26 26 26 26 25 25 25 25 25 25 24 23 23 22 21 21 20 20 20 19 18 17 16 16 16 16 16 16 16 16 17 17 17 17 15 14 13 12 13 14 14 14 13 12 11 10 10 10 11 12 13
4 3 7 5 6 4 4 3 7 8 7 12 13 3 6 9 6 7 11 12 13 12 12 13 11 10 9 10 9 9 12 14 16 19 21 22 22 24 25 25 25 25 25 24 25 26 26 26 26 26 25 26 26 25 24 24 23 22 22 21 20 20 21 21 20 19 18 17 17 16 16 16 16 16 17 19 19 18 17 17 15 14 13 11 12 13 11 10 9 8 8 8 9 9 11 13 14
4 3 4 3 4 5 5 3 7 7 6 9 8 2 7 8 7 9 11 13 15 13 12 12 11 10 9 9 10 9 11 14 18 21 22 23 24 24 25 25 25 25 24 24 26 27 27 27 27 26 26 26 26 25 24 23 22 20 20 19 19 20 20 20 19 19 18 17 16 16 16 17 17 18 19 18 18 16 15 15 14 14 12 10 11 9 7 6 6 7 7 8 9 9 10 11 11
2 4 2 1 3 5 5 4 7 8 8 8 2 1 5 6 7 10 11 12 14 14 13 12 11 11 11 9 10 9 10 14 19 22 23 24 24 25 26 26 26 26 25 26 27 27 27 27 27 27 26 26 26 24 23 22 20 19 18 18 18 18 18 19 18 17 17 16 16 17 17 17 18 19 18 15 15 15 15 15 14 12 10 9 8 6 5 5 5 6 6 6 8 8 9 9 8
3 3 5 4 3 5 4 4 6 6 9 9 4 3 2 3 7 10 11 12 12 12 12 12 12 11 11 10 9 9 9 11 14 19 23 25 25 26 27 27 27 27 28 28 27 27 27 28 28 27 26 26 25 24 23 21 20 19 18 18 17 17 17 17 17 17 17 17 18 18 18 18 19 19 17 13 13 14 14 14 12 10 7 6 4 3 3 3 3 3 3 4 6 8 8 7 7
2 2 4 2 2 6 5 4 6 4 8 10 5 3 2 2 9 12 12 13 12 11 11 12 11 10 10 9 9 9 10 10 11 17 23 25 25 27 27 28 28 28 28 28 28 28 28 28 28 28 27 26 25 24 23 22 21 20 19 18 18 18 18 17 17 18 19 19 19 17 17 17 18 18 16 11 11 13 11 9 8 6 4 3 2 1 1 1 1 2 3 4 6 8 8 8 8
6 4 4 3 3 6 8 7 9 9 9 8 4 4 4 3 9 12 12 13 12 12 12 11 11 11 10 9 10 10 11 11 13 18 24 25 26 27 28 28 28 28 29 28 28 28 28 28 29 28 28 27 26 25 23 23 22 21 20 20 20 20 20 19 20 21 20 18 17 16 16 16 17 16 13 9 8 9 6 4 4 4 3 2 2 2 2 2 3 4 5 6 7 8 9 8 9
10 7 6 7 5 7 11 6 7 13 11 9 8 6 5 7 10 12 12 13 12 11 10 10 10 10 9 9 9 10 11 12 15 21 24 25 26 27 28 28 28 28 29 29 29 28 28 28 28 29 29 28 27 25 24 24 24 24 23 23 23 22 22 21 22 21 18 16 16 17 15 14 14 12 9 7 6 5 4 4 5 4 3 3 3 3 3 4 4 5 7 7 8 8 7 6 6
9 7 5 7 6 7 8 3 2 10 10 9 8 4 6 10 12 13 12 12 11 11 11 10 11 10 9 10 10 11 11 12 14 20 23 25 27 28 28 28 28 28 29 29 29 29 29 29 29 29 29 29 28 27 26 26 27 26 25 24 24 22 22 22 20 18 16 14 16 16 12 11 11 8 7 8 6 6 6 6 6 4 4 4 4 5 5 5 6 6 7 6 6 6 5 3 4
6 6 5 5 5 6 6 2 2 6 6 5 4 5 6 8 10 11 12 13 14 15 14 13 13 11 10 11 12 12 10 9 10 14 19 24 26 27 28 28 28 28 29 30 30 31 31 30 30 30 29 29 30 29 28 28 28 27 25 24 23 22 21 20 18 17 15 15 16 14 12 11 8 6 8 9 8 9 8 7 6 5 5 4 5 6 6 6 6 6 6 6 5 5 4 2 3
5 4 5 4 4 4 4 4 5 6 5 4 3 4 3 3 7 10 12 15 14 14 14 13 13 12 11 12 12 12 10 8 8 10 15 21 24 27 27 27 29 30 31 32 32 32 32 31 32 31 30 30 30 30 30 29 28 26 25 23 21 20 19 19 18 16 15 15 15 14 13 11 9 9 10 10 10 10 9 8 7 5 4 4 6 6 6 6 5 5 5 5 4 3 2 1 3
4 4 5 3 3 3 3 4 7 6 2 1 5 2 3 1 4 7 11 12 9 9 10 9 10 12 13 14 13 12 12 11 10 10 12 17 21 24 26 28 30 30 30 31 32 32 32 33 33 33 32 31 31 31 31 30 27 25 24 21 19 19 19 18 17 17 16 15 15 14 14 12 11 12 12 11 11 10 9 8 7 5 5 6 7 6 6 6 5 5 4 4 3 1 1 1 2
3 5 6 4 4 5 3 4 7 4 2 2 6 4 5 4 7 8 9 9 8 7 9 9 10 12 12 12 11 11 13 13 12 12 11 14 18 22 26 28 29 30 30 32 33 34 34 34 35 35 34 33 32 32 31 30 27 25 23 19 17 17 17 16 16 17 16 15 15 15 14 13 13 14 13 12 11 10 9 8 6 6 6 7 7 6 6 6 5 4 4 3 2 0 1 1 1
3 5 8 8 8 6 4 8 9 4 2 3 5 2 6 4 8 10 7 8 11 8 9 12 11 11 11 10 11 12 12 12 12 13 12 13 17 21 24 27 29 30 32 34 35 36 36 36 36 35 35 34 33 32 31 30 29 27 24 21 19 18 18 17 18 18 17 16 16 15 14 14 15 16 14 12 11 10 8 6 6 6 7 7 7 6 6 6 5 4 3 2 1 0 1 1 1
2 6 10 10 8 8 8 10 8 4 4 5 6 5 5 4 6 10 8 9 13 10 11 13 12 12 12 11 12 12 12 12 12 12 12 13 17 19 22 26 29 31 34 35 34 35 36 35 35 36 35 35 34 33 31 30 30 28 27 25 23 22 21 20 19 18 16 16 16 16 16 16 16 17 15 13 11 9 7 5 5 6 6 6 6 6 5 6 5 5 4 3 3 2 2 1 1
3 6 9 10 9 9 11 11 7 5 2 1 4 4 2 5 6 8 10 9 11 12 13 13 13 14 14 14 14 13 14 14 12 13 13 14 18 21 24 27 31 32 33 33 33 34 35 35 35 36 36 35 34 33 32 31 30 29 28 26 25 24 23 21 19 18 16 15 15 17 17 17 17 16 15 12 10 8 7 6 5 5 5 4 4 5 6 6 6 5 5 5 5 4 3 2 1
6 6 8 9 9 9 10 10 6 3 4 1 4 3 2 6 6 2 8 10 11 15 18 17 16 16 16 16 16 15 15 15 14 14 14 15 19 24 26 28 30 31 32 33 34 35 35 36 35 35 35 35 34 33 32 32 31 30 29 27 25 24 23 20 19 18 17 15 15 17 17 17 17 15 13 11 9 9 9 8 7 6 5 5 5 6 7 7 6 6 6 6 6 6 5 4 2
5 6 6 5 5 5 6 7 4 3 3 5 7 6 4 6 5 2 6 9 13 16 17 18 17 16 16 16 16 16 14 13 13 14 14 16 22 26 27 27 29 30 31 33 34 35 35 35 34 34 35 35 34 33 32 32 31 30 29 27 25 24 22 20 19 18 17 17 17 18 17 16 16 15 14 12 10 11 11 9 8 8 7 7 7 7 8 7 7 7 7 7 7 6 5 4 3
5 7 6 6 5 5 3 1 3 4 1 6 10 12 9 6 5 4 6 10 16 16 14 15 15 15 17 16 16 16 14 12 12 12 13 17 23 25 25 27 29 30 30 30 32 33 34 34 34 34 35 35 34 33 33 32 31 30 29 27 26 24 23 22 20 19 19 19 20 19 17 17 16 16 15 13 11 11 12 12 11 10 10 9 8 8 8 6 5 6 6 6 6 6 6 5 4
5 5 5 4 2 3 4 4 4 3 4 7 9 10 8 7 6 6 11 15 17 16 15 16 17 18 19 17 16 16 15 13 12 12 12 13 16 19 23 25 27 28 28 29 32 32 33 34 34 34 35 34 34 33 33 32 31 31 30 28 26 25 24 23 23 22 22 22 21 19 18 18 18 17 16 13 12 12 13 13 13 13 11 10 9 8 7 6 5 5 6 6 6 6 7 7 6
5 4 5 4 2 2 1 1 1 3 6 6 5 8 5 7 8 8 12 14 14 15 16 18 19 20 19 17 16 14 13 13 13 12 12 12 12 15 20 24 25 27 29 31 32 32 33 33 34 35 35 35 34 34 33 33 32 32 31 29 28 27 26 25 24 25 24 23 22 22 21 20 20 19 17 15 13 14 14 14 14 14 13 11 10 9 8 7 6 6 6 6 6 6 6 7 7
6 6 5 5 3 2 3 3 1 2 6 5 3 8 4 5 7 9 13 16 17 16 18 18 15 14 15 15 15 13 13 14 13 12 13 13 13 15 20 24 25 27 29 31 32 32 33 33 34 35 35 35 34 34 33 33 32 32 32 30 29 28 27 26 26 26 25 24 24 23 22 21 21 20 18 16 15 15 14 14 15 15 13 11 11 10 9 9 9 8 7 8 7 6 6 7 7
6 6 6 5 5 5 4 4 3 4 3 2 2 5 5 4 4 8 12 15 15 14 14 12 7 5 9 10 11 12 12 13 12 13 14 14 15 18 21 24 25 28 30 31 32 32 32 33 35 36 35 35 35 34 34 33 33 32 32 31 30 30 28 27 26 25 25 24 23 23 22 21 21 20 18 16 15 15 14 15 15 14 12 11 11 11 11 10 11 10 9 9 8 8 8 8 7
5 3 5 5 6 6 3 3 6 5 2 0 2 3 5 5 6 7 4 6 9 11 10 9 6 6 9 9 11 12 12 13 12 13 15 15 16 19 21 23 26 28 29 30 31 33 34 35 35 37 37 36 34 35 34 33 33 33 32 32 31 31 29 27 26 25 24 23 22 22 21 20 19 18 17 16 15 14 14 16 15 13 12 12 12 12 11 11 11 11 11 10 10 10 10 10 9
3 3 4 5 6 7 3 2 2 3 2 3 2 3 3 2 7 8 4 6 9 8 8 10 9 7 10 10 12 13 13 14 14 14 15 15 15 19 22 24 26 28 29 32 34 36 38 37 36 37 36 35 35 36 35 34 34 34 34 33 33 32 30 28 26 25 23 22 21 21 20 19 18 17 17 16 15 15 15 15 14 13 13 13 12 12 12 12 11 11 12 12 12 12 11 12 11
6 4 6 3 3 3 3 2 1 3 2 4 2 5 4 2 3 7 4 8 12 9 9 10 7 8 10 12 12 14 15 15 15 15 14 13 14 18 23 26 29 32 33 35 37 38 37 36 36 36 36 36 37 36 35 34 35 35 35 34 34 32 30 28 26 25 23 22 22 22 20 18 17 17 17 16 16 16 16 16 15 14 14 14 14 14 13 13 13 13 13 13 13 12 13 13 13
4 4 6 5 3 2 1 3 2 1 3 3 2 3 3 5 5 5 6 11 13 12 10 8 9 11 12 12 13 15 14 13 13 13 12 12 13 18 23 26 29 32 34 35 36 34 34 35 36 36 37 38 36 32 33 34 35 35 35 35 34 32 30 27 26 25 24 23 22 21 18 17 17 17 17 16 16 17 16 16 15 14 14 14 14 14 14 14 14 14 14 13 13 13 13 14 14
2 3 4 2 3 5 3 3 4 4 4 2 3 2 3 6 7 7 11 13 13 13 10 8 11 14 14 13 12 12 13 12 12 12 13 13 14 19 26 28 30 34 35 34 32 32 34 35 35 35 36 35 32 32 34 35 35 35 35 35 33 31 29 27 26 26 24 23 22 19 17 17 17 17 16 16 16 17 17 16 15 14 14 14 14 13 13 13 14 14 14 13 13 14 15 15 15
3 4 5 2 1 3 2 1 3 4 4 3 3 3 5 7 6 9 13 13 13 14 11 11 12 14 14 13 11 11 12 12 12 13 14 14 15 20 26 29 30 31 30 28 29 31 34 33 33 35 35 33 33 34 35 36 36 36 35 33 32 31 29 28 28 26 24 21 19 17 16 17 17 17 16 16 17 17 17 15 15 15 15 15 14 13 13 13 14 14 14 14 14 15 16 16 15
8 7 6 6 4 3 2 4 1 2 3 4 5 4 7 7 5 9 12 11 11 13 12 12 12 13 13 10 11 13 13 13 14 14 14 14 13 17 23 26 26 26 26 28 31 32 33 33 36 37 36 35 35 36 36 36 35 34 34 34 35 33 31 30 29 27 24 21 18 16 16 17 17 16 15 16 17 17 16 16 16 16 16 16 15 14 14 15 15 15 15 15 16 17 18 18 18
Wind_Direction
152 154 148 150 149 139 139 114 43 353 72 80 4 40 22 119 115 104 115 130 131 354 38 89 93 96 101 115 129 98 39 20 183 135 146 145 139 143 135 139 145 138 136 133 136 142 145 146 148 150 145 144 143 138 138 142 144 142 137 133 131 130 129 129 129 130 134 138 140 140 137 135 133 133 134 133 131 129 127 125 123 124 125 125 123 117 113 111 109 105 99 90 80 69 57 52 60
153 149 143 143 147 136 85 61 72 360 64 68 337 32 334 49 74 92 118 127 117 100 90 91 87 76 88 111 120 84 35 19 68 99 94 130 133 139 140 141 144 140 137 136 139 144 143 144 146 145 143 146 144 136 136 141 144 143 138 135 133 131 131 131 131 131 133 137 141 142 140 138 136 135 135 135 133 130 127 125 125 126 126 125 119 115 113 110 107 103 97 90 80 66 50 41 45
154 148 142 140 135 93 40 44 91 77 71 88 333 324 346 72 80 78 93 102 117 122 106 95 86 71 79 90 51 25 53 52 93 96 112 135 137 144 145 143 145 143 139 139 141 143 142 143 143 141 141 145 142 138 138 140 143 143 140 136 134 132 132 132 132 133 134 136 138 141 142 141 138 137 138 137 136 133 129 128 127 126 124 121 116 114 110 106 101 94 91 88 81 65 44 33 29
152 149 147 143 63 23 59 43 130 112 101 143 133 312 33 100 107 91 98 110 125 118 96 89 62 12 67 85 59 60 85 95 102 102 126 149 155 150 148 147 147 147 145 144 144 142 143 144 141 139 140 141 141 141 140 140 143 143 140 138 135 133 132 133 133 134 136 137 139 141 142 142 141 140 140 140 139 135 132 131 130 126 122 118 114 112 107 101 92 87 89 87 79 62 44 28 18
147 150 157 144 58 69 69 74 113 97 154 171 148 237 108 126 121 109 108 99 96 68 81 97 70 19 72 79 62 86 95 113 116 110 122 153 157 150 149 148 149 150 150 149 148 144 141 143 141 139 139 139 140 141 141 140 142 142 140 138 136 134 135 137 137 138 140 141 142 144 144 144 144 144 143 143 141 136 133 133 133 130 123 119 116 112 105 97 88 85 84 78 71 56 41 25 12
142 145 155 104 77 135 92 100 103 88 190 169 144 166 143 145 129 116 103 73 53 56 76 89 102 109 82 63 50 77 148 132 124 127 132 149 154 151 150 148 147 149 153 154 152 147 142 142 142 140 139 139 139 141 141 141 142 142 141 139 138 136 137 139 140 142 143 145 146 148 149 148 148 147 144 143 141 136 134 135 135 130 126 124 119 109 98 89 82 73 61 58 49 38 29 18 5
144 139 95 63 43 66 96 121 140 145 129 152 150 151 150 148 132 119 107 85 61 47 54 86 115 109 82 102 77 41 110 133 133 145 146 149 152 153 151 146 147 149 152 154 150 146 143 141 143 142 142 141 141 142 142 142 142 141 141 141 140 140 140 141 141 142 144 147 150 152 154 154 153 151 149 147 145 140 137 138 136 131 127 123 113 99 87 82 70 49 33 33 26 15 6 359 349
147 136 39 92 7 27 82 92 134 185 76 81 130 138 145 146 140 122 110 100 92 77 83 102 112 100 58 52 88 38 79 125 144 146 148 148 152 154 153 147 147 149 149 152 145 140 141 141 143 143 142 140 141 142 142 143 141 140 141 142 142 143 143 142 142 142 144 147 150 152 153 152 151 151 153 152 150 146 142 142 139 136 130 122 106 85 72 62 40 22 8 11 7 356 349 342 336
134 84 44 110 170 42 55 33 54 233 64 92 106 123 137 142 136 116 109 95 107 116 103 121 104 105 113 65 90 66 84 125 138 142 147 148 152 153 156 151 147 150 149 150 144 140 142 141 142 142 142 141 141 143 144 143 141 140 141 143 144 145 145 143 143 143 144 147 149 149 149 149 150 153 155 154 153 149 145 146 145 143 137 125 92 61 40 17 360 352 350 349 348 346 341 335 331
55 30 145 123 82 63 47 6 33 16 48 92 109 130 140 139 119 111 114 108 110 111 94 89 83 109 124 91 81 91 118 133 134 139 148 149 153 155 159 154 149 151 150 150 147 144 144 142 142 143 145 145 146 146 145 143 141 143 144 146 147 148 148 147 147 146 147 148 149 150 150 150 152 153 154 155 154 150 147 150 150 143 132 112 49 25 358 347 342 338 341 339 337 336 333 331 329
35 342 130 75 63 99 145 95 76 73 72 85 106 139 140 133 114 102 107 105 90 101 120 90 94 117 105 89 66 118 132 136 135 142 151 151 152 160 162 158 154 151 151 154 150 148 146 145 145 146 148 149 151 149 147 146 146 149 150 152 153 153 153 152 153 152 152 152 153 152 151 150 152 155 157 159 156 154 152 153 153 147 150 229 349 357 348 338 333 332 333 332 329 325 325 325 325
62 249 78 92 115 150 167 131 115 105 102 117 149 177 139 139 126 121 120 117 111 115 151 124 137 142 91 82 101 128 135 137 142 147 152 151 152 164 165 162 160 156 155 156 155 152 150 149 150 150 150 150 153 151 150 151 154 155 156 158 159 160 160 160 159 158 157 156 157 156 155 155 158 161 160 161 159 158 158 165 176 174 204 266 318 334 332 327 326 326 325 325 323 321 321 321 322
125 167 86 96 163 134 133 128 135 119 130 186 177 164 136 147 145 139 123 115 123 129 156 132 148 138 84 99 115 137 143 143 147 149 152 152 157 165 167 167 164 161 157 156 158 157 154 154 155 153 151 153 156 155 156 159 161 161 162 164 164 164 163 161 161 161 162 162 165 165 165 164 165 163 157 163 169 172 180 194 206 218 263 294 305 306 313 316 321 324 326 324 324 322 321 321 322
163 165 113 107 92 113 124 122 150 147 182 208 162 143 145 147 160 146 124 121 121 137 126 115 131 106 97 131 131 164 156 151 151 149 152 153 160 164 167 170 166 163 160 159 161 160 161 160 159 158 157 160 163 162 164 165 166 167 166 166 164 163 162 162 162 164 168 170 173 173 170 167 165 165 167 183 192 200 209 215 221 237 265 286 293 297 304 308 314 316 317 316 317 318 317 320 322
176 115 99 110 102 110 140 149 159 163 200 199 154 140 133 61 138 137 123 130 112 130 120 111 128 88 148 172 165 182 160 155 153 150 152 151 157 161 169 171 169 167 164 165 165 165 167 165 164 164 166 167 168 168 168 167 167 169 167 167 165 165 166 166 168 170 174 175 176 176 172 169 172 180 190 200 206 215 225 230 234 243 265 282 284 284 289 295 300 300 303 306 309 312 313 316 320
163 98 80 91 138 156 172 156 140 161 209 183 147 129 98 87 138 119 81 111 115 146 137 137 197 113 161 177 155 160 156 154 153 151 151 148 153 157 167 172 172 171 169 171 170 171 171 171 172 170 172 173 172 170 169 169 170 171 170 171 172 171 171 171 171 172 175 177 178 178 178 183 190 200 209 218 222 230 240 246 250 259 274 284 285 283 286 291 294 298 302 305 308 311 312 317 322
119 101 95 103 166 186 176 170 166 174 185 153 150 135 122 140 147 84 85 101 126 149 216 117 181 116 142 145 142 149 152 153 152 151 148 148 152 155 164 172 175 177 178 179 176 176 176 177 179 178 177 175 174 173 172 172 173 176 175 177 178 177 176 175 176 174 176 179 182 188 190 195 204 212 221 232 238 245 256 263 267 272 279 282 286 289 291 293 296 301 304 304 308 312 315 321 325
118 129 149 172 184 195 182 180 184 160 156 159 163 152 148 153 143 116 102 101 122 120 55 83 55 70 114 130 139 147 152 153 154 152 150 152 155 157 165 172 177 182 183 184 183 182 180 181 183 183 181 179 178 178 178 178 178 181 181 182 184 185 182 181 184 183 186 187 191 197 197 204 212 220 231 244 254 262 267 272 273 275 278 279 282 286 289 292 298 304 306 307 309 313 319 324 326
141 131 150 222 193 202 192 173 180 161 156 160 157 155 163 157 141 143 133 136 139 113 83 89 82 88 111 130 141 150 155 156 158 156 156 158 161 163 167 174 180 185 186 186 186 185 184 185 186 187 185 184 184 184 185 184 185 186 186 187 189 190 187 188 192 192 195 196 201 203 202 213 221 229 241 252 264 268 269 270 270 271 273 274 277 280 284 290 297 303 307 309 308 314 321 325 325
176 129 178 247 194 189 195 171 180 166 152 151 154 155 166 178 152 153 145 145 157 149 151 137 132 136 135 140 146 155 159 160 162 161 162 164 167 169 170 176 182 187 189 189 187 186 188 189 189 190 189 190 189 190 190 189 190 191 192 193 194 194 193 195 196 197 200 201 204 206 207 217 228 238 245 254 262 265 269 272 271 271 272 275 277 279 284 290 296 300 304 306 308 314 321 324 323
180 150 193 240 175 172 203 172 167 157 155 152 151 148 153 186 164 147 142 141 185 199 192 173 157 154 149 151 154 160 162 161 164 166 167 168 172 175 177 181 184 188 189 191 190 189 191 192 192 193 194 195 195 195 195 195 196 196 198 199 199 199 199 201 202 202 202 205 208 209 213 221 232 242 250 256 259 261 266 271 273 274 277 280 281 284 288 294 299 303 307 310 313 318 323 325 323
170 217 214 220 157 182 209 165 151 151 154 147 151 156 157 167 163 161 153 150 205 206 199 180 158 155 156 156 157 163 165 164 168 170 172 174 176 179 182 185 187 190 190 192 194 194 195 196 197 197 198 199 200 200 199 200 201 201 203 204 205 205 205 207 209 209 207 209 214 218 224 230 239 248 256 259 259 259 263 270 274 277 282 286 287 292 297 300 302 306 312 314 316 320 324 325 323
196 262 240 216 186 190 186 155 151 148 153 161 161 155 144 149 164 177 169 177 242 182 165 164 157 154 152 154 158 165 170 171 173 175 178 179 181 184 184 186 188 190 191 194 196 196 197 199 201 201 202 202 203 204 204 204 205 206 208 208 210 211 212 213 213 215 214 214 220 227 233 238 246 255 262 263 261 260 267 274 279 284 288 293 295 299 302 304 305 308 314 316 317 318 320 320 318
204 259 261 224 203 189 160 154 157 154 162 167 148 139 156 167 165 176 193 260 205 131 132 143 146 147 149 155 164 169 173 177 179 180 182 183 186 188 187 188 189 191 192 195 198 198 199 201 202 204 205 205 205 207 207 208 209 211 212 214 215 215 218 218 217 219 220 223 228 234 239 245 252 259 262 262 262 263 269 276 283 289 292 295 296 301 306 308 309 311 314 313 311 311 309 309 309
206 241 262 226 200 177 151 151 155 154 158 145 137 152 170 171 141 163 198 100 122 125 126 137 142 148 154 162 168 169 174 178 181 181 184 188 189 188 189 191 190 192 195 197 199 200 202 203 204 205 207 208 208 209 211 212 213 214 216 219 220 219 221 223 224 225 227 230 235 241 245 250 255 259 261 261 262 263 267 274 281 285 289 293 295 302 307 309 307 305 303 300 297 296 299 301 300
226 250 275 158 150 149 144 147 152 150 146 140 146 155 156 130 115 150 204 130 127 126 130 142 148 154 163 167 170 172 176 179 181 183 186 189 188 187 190 191 192 195 198 198 199 201 204 206 206 208 209 211 211 211 213 214 216 217 219 221 223 225 226 228 230 233 235 237 242 247 251 255 258 260 261 262 263 264 268 273 279 283 287 290 294 298 300 301 299 295 293 292 290 289 295 298 297
251 312 50 92 114 133 140 141 146 138 143 157 150 145 146 141 130 187 205 146 137 132 138 151 155 162 168 170 173 175 179 184 185 183 184 185 187 190 191 192 195 198 200 199 201 204 205 207 209 209 210 212 213 214 215 216 218 219 222 224 226 228 230 233 235 238 241 244 248 250 253 255 258 262 263 265 267 269 270 275 282 285 284 286 289 287 287 290 292 292 293 294 296 295 295 293 299
246 119 70 57 88 106 131 137 146 134 142 162 136 113 130 158 242 207 172 152 145 143 148 159 163 168 172 172 175 176 184 189 187 184 185 187 190 192 193 195 197 198 201 202 203 204 205 208 209 210 211 212 214 216 216 218 220 221 223 225 228 230 233 237 240 243 246 249 250 250 252 254 259 263 266 270 272 274 275 277 282 285 285 285 283 279 279 285 289 292 295 298 299 296 293 295 306
92 120 86 56 76 103 143 138 151 146 144 147 117 87 163 206 244 176 155 153 149 148 154 163 169 172 173 176 177 179 188 189 188 191 193 193 194 195 198 200 198 199 203 204 204 204 206 209 210 211 212 214 216 217 218 221 222 224 226 228 230 233 235 239 243 247 248 248 248 249 251 254 259 264 268 271 271 274 276 276 279 282 282 280 280 281 284 288 289 291 295 297 294 292 295 301 305
68 73 95 98 79 127 195 135 147 139 147 154 131 128 224 218 227 161 156 156 148 152 161 167 171 174 178 180 181 186 190 189 191 197 198 196 197 198 202 203 202 202 203 203 203 205 207 209 211 212 213 215 217 218 220 222 224 227 229 232 234 236 237 241 243 244 245 245 247 249 253 257 261 265 268 270 271 273 272 272 273 274 274 279 287 289 287 287 287 290 295 297 300 300 298 298 298
92 74 75 107 123 182 222 169 148 132 169 171 130 175 222 224 216 167 163 161 156 161 169 172 174 177 181 183 185 191 193 193 197 200 200 199 199 201 203 204 204 204 204 203 205 208 208 209 211 212 213 215 216 218 220 222 226 228 231 234 234 235 236 238 240 240 241 243 246 250 254 259 263 265 265 267 270 271 270 271 269 270 277 286 291 289 288 295 300 301 304 306 309 305 298 297 294
103 111 91 259 152 188 234 219 175 151 181 197 129 191 234 230 194 170 169 167 164 167 172 177 178 181 182 185 189 192 196 197 200 202 202 202 201 202 204 204 205 205 206 207 209 209 209 211 212 213 214 214 216 218 219 221 224 226 229 230 231 233 235 236 237 239 242 244 248 252 255 260 263 263 263 263 265 266 270 272 272 278 287 285 281 287 304 314 310 303 306 309 308 309 311 311 304
318 99 149 192 147 175 214 228 213 168 172 202 210 182 244 241 176 171 173 172 173 173 176 180 182 185 185 187 190 192 196 198 203 205 204 204 204 205 206 205 206 207 209 211 210 209 211 212 214 216 216 215 215 217 219 219 220 223 225 227 230 233 235 237 237 240 244 246 249 252 256 260 262 263 265 265 267 270 270 274 280 282 281 273 272 292 312 318 310 298 301 303 303 311 319 323 321
271 64 126 186 171 177 187 199 214 178 173 205 214 175 224 215 170 172 177 176 177 178 182 185 186 190 190 190 194 194 196 198 205 206 205 205 205 207 208 208 208 208 211 212 212 213 213 213 215 217 218 217 217 219 220 218 217 221 224 227 231 235 238 238 240 242 243 248 253 254 256 260 263 266 268 264 269 275 273 277 278 262 251 258 266 275 287 299 288 284 293 296 298 304 310 314 314
185 164 134 194 228 201 197 190 186 174 183 209 211 209 219 172 167 176 180 178 181 187 186 188 191 193 194 194 197 198 200 205 207 205 205 206 206 208 209 210 210 209 211 213 214 215 215 215 216 218 219 219 219 220 222 220 219 222 225 230 235 239 241 241 245 246 244 248 253 252 253 259 264 268 271 261 260 266 260 253 241 218 218 229 223 225 236 260 270 280 294 298 298 298 299 302 303
173 176 158 177 206 225 211 202 182 169 178 207 203 207 193 167 176 182 182 181 187 194 189 191 195 196 198 200 204 205 205 212 211 206 206 206 208 209 209 211 211 211 212 213 214 215 215 216 217 218 219 220 220 220 223 222 221 224 228 234 238 241 242 243 248 250 249 249 248 248 248 254 264 271 268 250 234 228 210 199 201 194 202 214 226 239 251 263 271 284 293 298 300 299 298 300 302
153 155 159 178 193 234 230 277 264 168 172 210 194 174 185 180 184 184 181 182 191 198 196 198 198 196 200 202 209 212 212 218 213 208 208 208 209 210 210 210 211 212 213 212 212 213 216 217 217 218 219 219 220 220 221 222 221 223 227 233 237 238 236 239 243 246 248 246 245 249 249 252 264 266 241 224 206 193 190 193 198 205 215 228 243 249 258 260 266 280 288 295 300 305 313 328 323
136 147 162 181 199 233 233 248 258 176 179 222 164 152 205 197 189 185 178 184 197 200 197 200 199 198 201 203 210 214 217 221 212 209 210 209 210 210 209 209 209 209 211 211 212 213 215 217 218 220 220 218 220 220 220 221 221 222 225 228 231 231 230 232 235 239 242 242 243 248 250 252 253 231 208 202 194 190 192 199 208 219 223 239 255 253 253 249 258 272 280 290 291 303 322 353 345
132 132 147 183 216 225 222 184 165 173 207 253 148 157 237 221 193 194 189 196 204 202 199 200 196 197 202 205 209 211 214 215 209 209 209 209 209 208 207 207 208 209 210 211 212 213 214 215 217 220 220 219 220 221 221 221 223 223 225 227 227 226 226 228 233 239 241 239 241 244 247 247 233 212 200 194 195 197 200 209 222 230 234 266 269 256 244 238 248 258 269 282 281 301 318 7 360
134 138 149 198 222 176 217 192 153 153 180 183 131 112 315 196 186 214 211 211 215 207 207 208 201 203 206 206 206 205 208 210 209 208 207 208 209 207 206 207 208 209 209 209 209 211 212 213 216 217 219 221 221 221 222 223 223 222 222 225 227 225 225 228 232 238 240 239 241 242 243 238 218 204 199 198 202 205 209 219 233 241 257 273 264 245 232 224 231 242 259 273 275 320 4 28 15
202 180 163 175 199 195 209 158 138 105 37 111 110 52 312 198 185 218 216 217 226 214 208 213 214 213 214 213 210 206 207 208 206 205 203 204 206 206 206 207 206 206 207 208 208 209 211 213 215 216 218 221 222 222 221 221 220 216 215 216 219 219 221 225 228 232 234 235 237 237 235 226 209 200 202 207 209 210 215 224 236 247 259 258 243 230 224 218 220 229 242 253 259 57 69 13 23
251 217 187 180 177 181 153 131 128 111 262 231 126 92 287 233 202 213 200 207 219 212 208 215 216 214 215 214 211 210 210 208 207 206 200 198 202 204 205 205 204 205 208 209 209 210 211 213 214 216 218 220 222 222 221 220 217 214 211 209 208 210 214 219 223 227 229 230 231 228 223 217 205 200 204 210 211 210 214 223 234 245 247 235 225 225 221 220 227 235 240 236 241 181 163 342 12
249 228 191 180 160 146 147 144 139 151 214 220 166 189 269 290 230 213 194 206 216 215 217 218 215 213 212 211 210 210 208 207 208 209 202 195 196 199 202 203 203 205 208 208 209 210 211 213 213 215 217 220 222 221 220 219 216 214 214 214 215 216 218 222 227 230 232 234 231 222 216 211 202 201 206 208 206 208 217 230 236 237 233 220 219 231 234 239 249 260 264 254 256 253 234 249 312
236 226 170 160 149 152 160 158 167 178 144 133 168 175 274 286 254 207 185 202 222 225 226 222 216 214 212 211 212 209 207 206 204 205 204 198 196 196 199 202 203 205 206 206 207 209 211 212 213 215 217 219 221 221 220 218 216 215 215 217 220 223 226 229 230 231 233 236 229 218 213 207 201 202 206 204 203 215 225 227 229 231 232 228 235 252 257 255 255 256 259 260 261 258 254 256 268
235 203 154 150 153 163 165 166 189 170 110 201 223 156 196 263 282 205 176 198 223 228 226 223 217 213 211 211 211 210 209 206 202 202 203 202 200 200 200 201 204 205 204 204 206 208 210 212 213 214 216 218 220 220 219 218 218 217 217 218 221 225 229 231 231 232 232 229 218 209 204 201 201 201 203 204 211 219 216 213 222 232 237 241 251 265 263 256 256 256 256 258 256 254 256 262 269
224 154 117 91 103 123 153 171 174 103 126 217 218 181 196 259 278 183 168 203 224 227 227 224 218 212 211 211 211 211 209 207 206 204 202 203 204 203 201 201 203 205 205 205 206 207 208 209 210 213 215 218 219 218 217 217 217 217 217 219 221 224 226 226 227 228 222 213 204 198 196 199 202 200 201 206 214 212 208 212 223 230 236 240 249 260 257 253 256 258 256 250 245 247 250 256 268
152 115 90 63 55 64 81 113 102 101 227 240 214 192 195 247 263 192 182 207 214 217 226 226 217 213 212 211 209 208 206 204 204 204 205 205 206 204 201 201 203 203 204 204 204 205 206 207 208 211 215 217 217 217 216 216 216 216 218 219 221 222 222 221 219 215 206 199 196 195 197 199 201 201 202 204 208 209 211 217 224 228 230 232 241 249 244 242 247 250 247 239 237 243 243 246 257
136 105 99 107 18 31 39 12 62 134 243 253 218 190 192 238 254 219 215 220 213 210 219 220 213 211 211 208 207 206 204 200 198 201 205 202 201 202 200 202 202 200 200 201 203 204 204 206 207 210 213 215 215 216 216 216 216 217 218 219 221 222 221 220 215 208 202 197 198 199 199 198 199 200 200 201 205 208 211 218 224 224 222 226 237 240 234 233 239 243 239 231 235 244 244 247 251
133 115 104 128 262 350 97 270 94 179 240 256 188 159 189 246 249 236 230 235 229 218 219 219 213 209 208 205 204 204 199 197 197 198 200 199 198 197 197 200 200 198 199 200 202 203 204 205 207 209 212 213 215 217 216 217 218 219 219 219 221 223 222 221 216 210 206 203 203 201 198 197 198 198 199 202 207 208 213 220 221 218 220 230 237 233 231 236 242 246 242 233 234 240 242 247 252
152 151 138 149 170 170 218 239 359 222 254 289 142 153 204 272 261 239 228 231 230 223 223 224 218 208 205 203 201 200 197 196 198 197 198 200 200 197 195 196 196 198 200 201 201 202 203 205 206 209 213 214 216 217 218 218 220 221 221 221 222 223 222 222 218 213 210 208 207 205 203 200 199 200 203 206 209 212 219 222 218 217 224 234 234 229 231 238 243 247 247 243 242 243 242 245 251
179 167 147 161 165 168 209 206 189 214 244 333 104 154 192 217 252 243 228 232 230 227 235 237 227 191 187 194 195 196 200 199 198 198 199 201 200 196 194 194 195 198 200 201 202 202 203 205 207 209 213 214 215 217 218 219 220 221 221 222 223 223 224 223 219 216 214 212 210 209 207 204 203 206 208 209 211 215 217 213 212 218 228 233 230 227 231 237 241 244 248 250 248 248 249 249 251
212 149 129 184 185 168 194 190 180 180 156 123 166 204 219 218 286 296 285 283 249 229 240 241 221 172 159 176 192 194 198 200 200 201 202 203 199 195 193 193 196 198 200 201 202 203 204 206 208 211 214 215 216 217 217 218 219 220 221 222 223 223 224 223 218 216 215 215 214 212 210 209 211 213 211 211 214 215 209 205 211 224 232 233 230 231 236 237 238 243 250 256 255 253 255 256 258
184 143 176 210 174 148 158 214 171 126 178 244 186 223 271 304 300 293 296 297 269 239 231 227 212 173 165 182 192 193 196 198 200 202 202 200 196 194 194 193 195 198 201 203 204 205 206 207 208 211 214 215 216 217 216 216 217 219 221 222 223 222 222 221 218 216 215 216 216 215 215 215 215 214 212 214 215 212 206 209 222 234 234 233 234 238 238 233 236 245 252 257 259 260 262 263 265
137 181 198 172 113 113 124 178 11 66 221 263 194 198 220 160 277 293 273 254 260 255 237 223 193 169 186 196 193 193 196 196 198 201 201 199 195 195 195 195 198 200 202 205 207 207 208 209 210 211 213 215 216 216 214 214 215 217 220 221 221 221 221 219 218 217 217 217 217 217 218 217 215 213 215 217 215 212 212 218 229 234 231 232 237 240 238 233 237 245 251 257 260 261 263 265 267
146 180 173 139 155 216 136 172 184 148 214 265 280 243 225 195 223 271 240 229 241 249 240 213 186 189 199 202 198 195 193 194 197 199 199 197 197 196 195 198 201 203 206 208 208 208 209 211 212 212 215 216 215 214 212 214 216 216 219 221 221 220 218 217 216 217 218 219 219 219 219 217 214 214 217 218 217 216 217 221 226 228 229 234 240 243 242 240 243 248 253 259 264 265 266 268 270
80 122 150 144 170 178 178 169 167 188 204 225 270 283 254 228 216 211 217 222 228 235 237 218 202 203 204 201 197 192 190 194 194 196 199 198 198 197 197 199 201 203 207 208 207 207 209 211 212 213 216 216 214 213 213 214 215 216 218 219 219 216 215 215 215 216 217 220 221 221 221 219 217 218 221 221 221 219 218 219 223 228 233 237 241 244 245 247 249 252 255 259 264 268 270 272 274
137 163 179 180 139 141 189 187 133 154 174 177 204 235 253 246 208 195 213 220 218 219 222 222 214 210 209 201 189 186 189 193 193 196 200 199 197 197 199 202 203 205 207 207 206 208 210 211 212 213 215 214 213 213 213 214 214 214 214 214 214 213 213 215 215 214 215 218 222 226 227 223 221 222 225 224 222 219 219 222 227 234 238 240 243 245 247 250 252 253 254 257 261 265 269 272 276
168 187 187 179 169 138 193 245 230 126 166 177 176 212 257 251 196 198 215 216 218 216 210 218 222 216 211 196 184 188 189 190 196 199 199 197 195 195 197 200 201 201 204 205 207 208 209 210 212 213 213 212 213 212 213 213 211 210 210 211 213 211 211 213 212 211 210 210 218 229 231 226 225 227 228 224 221 220 224 230 235 240 242 244 246 248 251 254 257 259 261 262 264 267 270 273 277
Height
764 766 767 769 769 770 773 775 790 792 792 808 805 802 799 787 788 792 795 794 795 794 786 787 788 789 794 799 804 805 806 806 809 815 818 808 801 806 805 806 807 807 809 810 812 813 815 816 817 817 818 818 820 820 820 821 823 825 826 828 829 831 832 834 835 836 837 838 839 840 841 842 843 844 844 845 846 847 847 848 849 849 849 850 850 850 851 851 852 852 852 852 852 852 852 851 851
765 767 767 770 769 773 778 777 797 801 800 815 807 801 797 786 791 796 797 795 796 793 786 788 789 792 793 795 798 802 806 804 803 804 804 802 804 807 807 808 807 808 809 811 812 814 816 818 818 819 819 820 821 822 822 823 825 826 828 829 831 832 834 835 836 837 838 839 841 841 842 843 844 845 845 846 847 848 849 850 850 850 851 851 851 851 852 852 852 853 853 853 853 853 853 853 852
765 767 767 770 770 773 779 783 799 806 811 820 811 798 792 793 797 797 794 793 792 788 787 788 791 794 796 800 801 806 810 805 801 802 803 804 805 807 809 809 808 809 810 812 814 815 817 818 819 820 820 822 823 824 824 825 827 828 830 831 833 834 835 836 837 838 839 841 842 842 843 844 845 846 847 847 848 849 850 851 851 852 852 852 852 852 853 853 853 853 854 854 854 854 854 854 853
765 767 767 769 774 778 785 793 798 805 815 819 813 799 792 799 798 795 793 790 788 786 788 791 796 795 796 807 806 807 811 806 803 803 804 805 805 807 809 810 810 810 811 813 815 816 817 818 820 821 822 823 824 825 826 827 829 830 831 833 834 835 836 837 839 840 840 842 842 843 844 846 846 847 848 848 849 850 851 852 852 852 852 853 853 853 854 854 854 854 854 854 855 855 855 854 854
765 768 768 768 779 784 789 796 796 802 810 810 809 801 794 797 795 794 792 789 787 787 790 792 801 798 796 805 805 810 811 806 805 803 804 806 805 808 809 811 811 812 813 814 816 817 818 820 821 822 824 825 826 827 828 829 831 832 833 834 836 837 838 839 840 840 841 842 843 845 845 847 847 848 849 849 850 851 852 853 853 853 853 853 854 854 854 855 855 855 855 855 855 855 855 855 855
765 768 768 769 776 780 790 797 797 801 798 796 802 798 794 793 792 793 791 790 788 787 789 792 799 800 803 805 803 808 807 806 806 804 804 806 807 808 810 811 812 814 814 816 817 818 819 821 823 824 825 826 827 828 829 831 832 833 834 836 837 838 839 840 841 842 842 843 844 846 846 847 848 849 850 850 851 852 853 853 854 854 854 854 854 855 855 855 856 856 856 856 856 855 855 855 855
765 770 771 775 779 781 795 799 798 801 791 788 794 793 792 791 790 791 792 793 793 791 790 793 794 800 810 807 805 807 803 805 804 805 805 806 808 809 811 813 814 815 816 818 819 820 821 823 824 826 827 828 829 830 831 832 834 835 836 837 838 839 840 841 842 843 843 845 846 846 847 848 849 850 851 851 852 853 854 854 854 854 855 855 855 855 855 856 856 856 856 856 856 856 856 855 855
764 771 774 783 790 789 797 799 797 799 790 785 787 788 789 789 788 790 793 795 797 796 794 795 792 803 813 806 811 810 803 806 804 806 806 807 810 810 813 814 815 817 818 820 820 822 823 825 826 827 828 829 830 831 832 833 835 836 837 838 839 840 841 842 843 844 844 845 846 847 848 849 850 850 851 852 853 853 854 855 855 855 855 856 856 856 856 856 857 857 856 856 856 856 856 855 855
764 771 777 786 794 794 797 800 799 796 792 787 787 787 787 787 787 790 794 795 796 796 797 795 792 805 813 809 814 810 805 807 806 807 808 809 811 812 814 814 816 817 819 821 822 823 824 826 827 828 829 830 831 832 833 834 835 836 838 839 840 841 842 843 843 844 845 846 847 848 848 849 850 851 852 852 853 854 855 855 855 856 856 856 856 856 857 857 857 857 857 856 856 856 856 855 855
768 773 781 789 793 799 803 803 801 797 793 790 788 787 786 786 787 790 793 796 796 797 798 793 794 805 810 813 815 810 808 808 807 809 810 811 812 813 815 815 818 818 821 822 823 824 825 827 828 829 830 831 833 833 834 835 836 837 839 840 841 842 843 844 844 845 846 847 848 848 849 850 851 851 852 853 854 855 855 856 856 856 856 856 856 857 857 857 857 857 856 856 856 856 855 855 855
776 778 779 790 796 803 806 805 803 799 794 790 790 786 785 785 788 792 793 796 796 799 799 794 802 807 809 815 815 810 809 809 808 810 811 813 814 815 816 817 819 820 822 822 824 825 826 828 829 830 831 833 834 834 835 836 838 839 840 841 842 843 844 845 845 846 847 848 848 849 850 850 851 852 853 854 854 855 856 856 856 857 857 857 857 857 857 857 857 857 856 856 856 855 855 855 855
780 783 782 793 798 801 803 805 805 800 797 794 794 787 783 785 789 794 795 797 797 800 798 795 801 803 811 818 814 811 810 811 811 811 813 814 815 816 817 819 820 821 823 824 825 826 827 829 830 832 833 834 835 835 837 838 839 840 842 842 843 844 844 845 846 847 848 849 849 850 851 851 852 853 854 854 855 856 856 856 856 857 857 857 857 857 857 857 857 857 856 856 855 855 855 855 855
778 783 785 794 797 799 801 804 804 803 803 797 793 786 783 787 790 792 794 798 798 802 798 793 796 798 812 818 813 812 811 812 811 813 814 815 817 817 819 820 821 823 824 825 826 827 828 829 831 832 833 835 835 837 838 839 841 841 843 843 844 845 845 846 847 848 848 849 850 851 851 852 853 854 855 855 856 856 857 857 857 857 858 858 858 858 858 857 857 857 856 856 856 855 855 855 855
772 777 782 793 797 798 800 804 804 806 806 794 788 785 785 789 789 787 790 799 801 799 796 790 792 800 812 816 816 814 811 812 812 814 815 816 817 818 820 821 822 824 825 826 827 828 829 830 832 833 834 835 837 838 839 840 841 842 843 844 845 845 846 847 848 849 849 850 851 851 852 853 854 854 855 856 856 857 857 857 857 858 859 858 858 858 858 858 858 857 857 856 855 855 855 855 854
767 771 778 791 797 797 799 802 802 806 803 790 786 785 787 788 786 789 788 795 801 793 791 792 792 801 809 812 815 811 808 811 812 814 816 817 818 819 820 821 823 824 825 827 828 829 830 831 832 834 835 836 838 839 840 841 842 843 844 845 845 846 847 848 849 849 850 851 851 852 853 853 854 855 855 856 856 857 857 857 858 859 859 858 858 858 857 857 857 858 857 856 855 855 855 854 854
761 768 780 792 797 800 798 797 801 806 798 787 785 783 791 791 784 791 786 787 796 792 792 795 793 797 802 804 805 804 807 811 812 815 816 817 819 820 821 822 824 824 826 827 828 830 830 832 833 835 836 837 838 839 841 841 842 843 844 845 845 847 847 848 849 850 850 851 852 852 853 854 854 855 855 855 856 856 857 857 858 859 858 858 858 857 857 857 857 858 858 857 855 855 854 854 853
758 769 785 792 796 798 794 794 798 798 791 787 786 784 794 796 787 787 784 784 793 795 795 795 793 792 796 799 800 802 807 810 812 815 816 818 819 820 822 823 824 825 826 827 828 830 831 833 833 835 836 837 839 839 841 841 842 843 844 845 846 847 847 848 849 850 850 851 852 852 853 854 854 854 855 855 855 856 856 857 858 858 858 857 857 857 857 857 857 857 857 856 855 854 854 853 853
763 778 789 791 794 791 783 785 785 783 785 786 785 785 791 794 791 787 788 793 795 797 797 795 795 793 795 797 800 804 807 809 812 814 816 817 819 820 822 823 824 825 826 827 829 830 831 833 834 835 836 838 839 840 841 841 843 843 844 845 846 847 847 848 849 850 850 851 852 852 853 853 854 854 854 855 855 856 856 857 857 857 857 857 857 857 856 856 856 856 855 855 855 855 854 853 852
766 779 787 786 784 778 769 773 775 775 780 782 783 784 788 790 789 786 794 802 798 801 803 799 801 799 798 799 801 805 807 809 811 813 815 816 818 819 821 822 824 825 826 828 829 830 832 833 834 835 836 837 839 840 841 842 843 844 845 845 846 847 847 848 849 850 850 851 852 852 853 853 854 854 855 855 855 856 856 856 856 856 857 856 856 856 856 856 856 855 854 854 854 854 853 852 852
764 773 785 779 770 769 764 766 769 769 773 779 784 783 787 789 785 785 794 802 801 803 803 801 805 803 801 800 801 805 807 809 811 812 814 816 818 818 820 821 822 824 825 827 828 830 831 832 834 835 836 838 839 840 841 842 843 844 845 845 846 847 848 848 849 850 850 851 852 852 853 853 854 854 855 855 855 855 855 856 856 856 856 856 856 855 855 855 855 855 854 854 854 853 853 852 852
764 769 778 769 762 768 764 762 765 766 768 775 781 783 789 787 783 786 792 802 806 801 794 793 797 800 800 800 801 804 806 808 810 812 814 815 817 818 820 820 821 823 824 827 828 829 830 832 834 835 836 838 839 840 841 842 843 844 845 846 846 847 848 848 849 850 850 851 852 852 853 853 854 854 854 854 854 855 855 855 855 856 856 855 855 855 855 855 854 854 854 854 853 853 852 852 851
764 765 764 759 759 766 760 758 762 765 769 773 780 784 786 784 784 787 789 798 799 790 786 786 788 791 795 797 800 803 805 807 809 811 813 814 816 817 819 820 821 823 824 826 827 829 830 832 834 835 837 838 839 840 841 843 843 844 845 846 846 847 848 848 849 850 850 851 851 852 852 853 853 853 854 854 854 854 854 854 855 855 855 855 855 854 854 854 854 854 854 853 853 852 852 851 850
765 764 756 755 756 758 757 757 759 762 770 775 777 778 779 785 789 786 786 790 785 778 779 784 786 787 790 795 798 802 804 806 807 809 811 813 814 815 817 818 820 822 823 825 827 829 830 832 834 835 836 837 839 840 841 842 843 844 844 845 846 847 848 848 849 849 850 850 851 852 852 852 852 853 853 853 853 853 853 854 854 854 854 854 854 854 854 854 854 853 853 853 852 852 851 850 850
764 765 755 753 752 753 753 755 757 760 767 770 771 775 780 786 788 786 787 785 778 776 778 782 787 788 791 795 797 800 802 804 806 808 810 811 813 814 816 817 819 821 823 825 826 828 830 831 833 834 835 837 838 839 841 841 842 843 844 845 845 846 847 847 848 848 849 850 850 851 851 852 852 852 852 852 852 852 853 853 853 853 853 853 853 853 853 853 853 852 852 852 851 851 850 850 849
763 763 754 751 750 751 750 753 757 760 765 767 771 778 782 781 782 786 788 783 778 777 780 784 787 790 793 795 797 799 802 804 806 808 810 812 813 815 817 818 819 821 822 824 826 827 829 830 831 833 834 835 837 838 839 840 841 842 843 844 845 845 846 846 847 848 848 849 850 850 850 851 851 851 851 851 851 851 852 852 852 852 852 852 852 852 852 851 851 851 851 851 850 850 849 849 848
759 755 752 752 752 751 751 755 758 761 765 767 775 784 783 779 781 789 787 782 780 778 782 786 788 792 794 796 797 799 801 803 805 807 809 811 813 815 816 817 818 819 821 822 824 826 827 829 830 831 833 834 836 837 838 839 840 841 842 843 844 844 845 845 846 847 847 848 849 849 850 850 850 850 850 851 851 851 851 851 851 851 851 851 851 851 850 850 850 850 850 850 849 849 848 848 847
750 750 752 753 753 752 753 758 760 762 766 767 776 786 784 779 784 793 787 780 781 782 786 788 790 794 794 795 797 798 800 801 803 806 808 811 812 813 814 816 817 818 820 821 823 824 826 828 829 830 832 833 834 836 837 838 839 840 841 842 842 843 844 844 845 846 846 847 847 848 848 849 849 849 850 850 850 850 850 851 851 850 850 850 850 849 849 849 849 849 849 848 848 848 848 847 847
747 749 755 758 755 757 757 760 763 764 771 770 773 786 787 784 787 789 784 779 780 784 789 790 792 794 794 795 796 797 799 800 803 805 807 808 809 811 812 813 815 817 818 819 821 823 825 826 828 829 831 832 833 834 835 836 838 838 840 840 841 842 843 843 844 845 845 846 846 847 847 847 848 848 849 849 849 850 850 850 850 850 850 849 849 848 848 848 847 848 848 848 847 847 846 846 846
749 748 762 768 762 767 765 763 764 765 774 770 772 794 798 791 788 784 780 780 781 785 790 791 793 794 795 796 796 797 798 799 802 803 805 806 808 810 811 812 814 815 816 818 821 822 824 825 827 828 829 831 832 833 834 835 836 837 838 839 840 841 842 842 843 844 844 845 845 845 846 846 847 847 848 848 848 848 849 849 849 849 849 849 848 847 847 847 846 847 847 847 846 846 845 845 845
754 753 763 774 778 780 770 765 766 768 774 765 771 802 806 791 786 781 779 780 783 789 791 791 793 794 795 796 796 797 797 798 800 801 803 805 807 808 809 811 813 814 816 818 820 821 822 824 825 827 828 829 830 832 833 834 835 836 837 838 839 840 841 841 842 842 843 844 844 844 845 845 846 846 846 847 847 847 847 847 848 848 848 848 847 847 846 846 846 846 846 846 845 845 844 844 844
761 763 767 777 789 789 772 767 771 774 776 764 773 800 799 788 785 781 778 779 783 789 791 791 793 793 794 795 796 797 796 797 798 799 802 803 805 807 808 810 811 813 815 816 818 819 821 822 824 825 826 828 829 830 831 832 834 835 836 837 838 839 839 840 840 841 842 842 843 843 844 844 845 845 845 846 846 846 846 846 846 846 846 847 846 846 846 845 845 845 845 845 845 844 844 843 843
765 774 784 785 788 789 776 768 770 775 776 768 778 796 792 786 784 780 779 780 783 788 790 790 792 793 794 794 795 796 796 796 797 799 800 802 804 805 807 808 810 812 813 814 816 818 820 821 822 824 825 826 827 829 830 832 833 834 836 836 837 838 838 839 839 840 841 842 842 842 843 843 843 843 844 845 845 845 845 845 845 845 846 846 846 845 845 845 845 845 845 845 844 844 843 843 842
772 776 790 790 788 792 784 772 766 769 775 775 780 791 791 786 782 780 779 781 785 788 790 790 791 792 792 794 794 795 796 796 797 797 798 800 802 803 805 806 808 810 811 813 814 816 818 819 821 822 823 825 826 828 829 831 832 834 835 836 837 837 838 838 839 840 840 841 841 841 842 842 842 842 843 844 845 844 844 845 845 845 845 845 845 845 845 845 845 845 845 844 844 843 843 842 841
781 778 785 788 786 791 789 780 769 767 776 780 780 786 790 785 781 781 779 780 786 789 791 791 791 792 792 793 793 794 795 795 795 794 796 798 800 801 803 805 806 808 810 811 813 814 815 817 819 820 822 823 825 826 828 830 831 833 834 835 836 836 837 838 838 839 839 840 840 840 841 841 841 840 842 843 843 844 843 844 844 844 844 844 845 845 845 845 845 845 844 844 843 843 842 842 841
784 781 783 788 786 788 788 779 768 767 776 782 785 788 787 785 782 781 780 780 785 788 788 789 789 790 791 792 793 793 793 793 791 791 794 796 798 800 801 803 805 806 808 809 811 813 814 816 817 819 820 822 824 825 827 829 830 832 833 834 835 835 836 837 837 838 838 839 839 839 840 840 840 840 841 841 842 842 843 843 843 843 843 844 844 844 844 844 844 844 843 843 842 842 841 841 840
774 774 776 784 786 785 779 770 761 763 777 783 784 787 786 786 785 783 781 780 784 786 786 787 788 789 790 792 792 792 792 790 787 789 792 793 795 797 799 801 803 804 806 808 810 811 813 814 816 817 819 820 823 824 826 827 829 830 831 832 833 834 835 836 836 836 837 837 837 838 839 839 839 839 840 840 841 841 842 842 842 842 843 843 843 844 843 843 843 842 842 842 841 841 840 840 839
764 770 774 777 783 783 775 771 764 761 776 783 780 784 786 785 784 781 780 782 785 787 787 788 788 789 790 791 791 791 790 787 786 788 790 791 793 795 797 799 801 803 804 806 808 809 811 812 814 815 817 819 821 822 824 825 826 828 829 830 831 832 833 834 835 835 835 836 836 836 837 838 838 838 839 839 840 840 841 841 841 842 842 842 842 842 842 842 842 841 841 841 840 839 839 839 838
762 768 773 776 780 780 773 772 768 763 776 784 780 784 787 785 784 781 780 783 783 782 784 785 785 787 787 788 789 788 787 786 786 788 788 790 791 793 795 797 799 800 801 804 805 807 809 811 812 814 815 817 818 820 822 823 824 826 827 828 829 831 832 832 833 833 834 834 835 835 836 837 838 838 838 838 839 839 840 840 841 841 841 841 841 841 841 841 841 841 840 840 839 839 839 838 838
764 768 773 777 776 776 772 768 768 768 777 785 784 787 789 786 784 782 780 779 777 775 777 780 782 785 786 785 785 785 787 787 787 787 787 788 789 790 793 794 796 797 799 801 802 805 807 808 810 812 813 815 816 818 819 821 822 824 826 827 828 830 830 831 832 832 833 833 834 834 835 836 836 837 837 837 838 838 839 839 839 840 840 840 840 840 840 840 840 840 840 839 839 839 839 839 838
766 768 773 777 773 776 777 772 772 771 775 783 785 789 790 786 785 784 779 776 776 775 776 777 779 781 781 779 780 782 784 786 785 785 785 785 787 788 789 791 793 795 797 798 800 802 804 806 807 809 811 813 814 816 817 819 821 823 825 826 827 828 829 830 830 831 831 832 832 833 833 834 835 835 836 836 837 837 838 838 839 839 840 840 840 840 840 840 840 840 839 839 839 839 839 839 839
767 766 769 771 769 770 772 772 773 773 778 780 784 796 794 787 789 786 779 778 778 776 776 778 777 776 776 777 778 779 780 781 782 783 782 783 784 785 786 788 790 792 794 795 797 799 800 802 804 806 808 810 812 813 815 818 820 822 823 825 826 827 827 828 828 829 830 830 831 831 832 832 833 834 835 835 836 836 837 837 838 839 839 839 839 839 839 839 839 839 839 838 838 838 839 839 839
767 762 760 760 761 764 767 771 775 787 794 781 783 806 802 787 789 786 780 781 779 777 777 776 776 775 776 778 777 776 776 776 778 778 779 780 781 783 784 786 787 788 790 791 794 796 797 800 802 804 806 807 809 811 813 816 817 819 821 822 823 824 825 825 826 827 828 828 829 829 830 831 832 833 833 834 835 836 836 837 837 838 838 838 839 839 839 839 839 838 838 838 838 838 838 838 838
770 757 749 752 757 762 769 773 778 793 798 778 776 799 803 792 787 782 779 782 780 777 776 773 773 773 773 774 773 772 773 773 774 774 775 777 778 780 781 782 784 785 786 789 791 793 795 797 799 801 803 805 807 809 811 814 815 817 818 819 821 822 823 823 824 826 826 827 827 828 829 829 831 832 832 834 835 835 836 836 837 837 837 838 838 838 838 838 838 838 838 838 837 837 837 838 838
765 748 743 752 757 761 767 771 776 781 782 780 778 788 800 795 781 776 777 782 783 778 775 771 768 768 768 768 768 767 768 768 769 771 772 773 774 775 777 778 780 781 784 787 789 791 793 795 797 799 801 803 804 807 809 811 813 814 816 817 819 819 821 822 823 824 825 825 826 827 828 829 830 831 832 833 834 835 836 836 837 837 837 837 837 837 837 837 837 837 837 837 837 837 837 837 837
751 740 742 748 753 758 762 768 774 773 780 796 792 787 802 798 777 775 778 781 784 777 770 766 762 762 762 762 763 762 762 762 763 766 767 768 769 771 773 775 778 780 782 784 786 788 790 793 795 797 799 800 802 804 806 808 810 812 814 815 817 818 819 821 822 823 823 824 825 826 827 828 829 830 832 833 834 835 836 836 837 837 837 837 837 837 837 837 836 836 836 837 837 837 837 837 837
740 737 743 747 752 758 762 769 774 777 788 801 795 788 801 798 778 779 785 783 779 768 760 756 754 756 756 756 757 757 758 759 759 761 762 763 765 767 771 774 776 778 780 782 784 786 788 790 793 794 796 798 800 802 804 806 808 810 812 813 814 816 818 819 820 821 822 823 824 825 826 827 829 830 831 832 833 834 835 836 836 837 837 837 838 837 837 837 836 836 836 836 836 836 837 836 836
734 739 746 751 759 762 767 772 773 789 801 794 786 783 791 794 780 778 779 766 757 754 753 751 749 751 751 749 751 751 753 755 756 758 759 760 763 766 769 771 773 776 778 781 782 784 786 788 790 792 794 796 797 800 802 803 806 807 809 810 812 814 815 817 818 819 820 821 823 824 825 827 828 829 831 832 833 834 835 835 835 836 836 837 837 837 837 837 837 836 836 835 836 836 836 836 836
734 742 749 758 769 769 777 783 781 802 809 785 775 779 790 796 779 766 760 744 737 742 743 743 743 743 741 742 744 745 747 750 753 756 757 759 762 764 767 768 770 773 775 778 779 781 783 785 787 789 791 793 795 797 799 801 803 805 806 808 810 811 813 814 815 817 818 820 822 823 824 826 827 829 830 831 832 833 834 834 835 835 835 836 836 837 837 837 837 836 836 835 835 835 835 835 835
740 748 755 769 784 785 792 798 798 807 799 774 771 781 792 791 766 751 752 742 735 734 730 729 730 731 734 736 738 740 743 747 749 752 753 756 757 759 762 764 767 770 772 774 776 778 780 782 784 786 788 790 792 794 797 798 800 802 804 806 807 809 810 811 813 814 816 818 820 821 822 824 826 827 829 830 831 832 833 833 834 834 835 835 835 836 836 836 836 836 836 835 835 835 834 834 834
747 750 758 773 789 799 805 809 810 806 787 772 774 781 790 784 755 739 740 734 728 725 720 718 719 724 729 731 734 737 740 742 744 747 749 750 751 753 756 760 763 766 768 771 773 775 778 780 782 784 785 788 790 792 794 796 798 800 801 803 805 806 808 809 811 812 814 816 818 819 821 822 824 825 826 828 829 830 831 832 832 833 834 834 834 834 835 835 836 836 836 835 835 835 834 833 833
745 741 747 761 771 784 794 797 797 791 782 783 785 784 786 775 746 727 722 718 718 719 717 716 719 723 726 729 733 736 738 739 740 742 743 744 745 748 752 756 759 762 765 768 770 772 775 776 778 780 782 784 786 789 791 793 796 798 799 801 802 804 805 807 809 811 813 815 817 818 819 820 822 823 824 826 827 828 829 830 831 832 833 833 833 833 833 834 835 835 835 835 834 834 834 833 832
743 735 743 754 751 755 771 778 776 774 780 788 787 778 768 753 732 718 718 717 716 717 718 719 722 722 724 729 731 732 735 736 737 738 739 739 742 745 749 752 755 759 762 764 767 769 770 772 774 776 778 781 783 785 788 791 793 796 797 798 800 802 803 805 808 810 812 814 816 817 818 819 820 822 823 824 825 826 827 828 829 830 831 832 832 832 832 832 833 833 834 834 834 834 833 832 832
741 741 745 745 736 738 759 775 776 776 782 783 780 771 758 750 736 719 718 719 715 716 718 718 720 721 723 726 726 727 729 730 732 733 734 736 739 742 745 748 752 755 758 760 761 763 765 768 771 773 776 778 780 782 785 788 791 793 794 796 797 799 801 804 807 809 812 813 815 816 817 818 819 821 822 823 824 824 825 827 827 829 829 830 831 831 831 831 831 832 832 833 833 833 832 831 831
733 742 737 733 738 740 750 770 782 788 788 780 777 770 760 763 753 726 720 723 716 715 715 715 720 722 722 721 720 721 721 723 726 727 730 733 735 738 741 744 747 749 752 754 756 759 762 765 768 770 773 774 776 778 782 785 787 789 791 793 795 797 800 803 806 808 811 812 813 814 815 817 818 820 821 822 823 823 824 825 826 827 828 829 830 830 830 830 830 830 831 831 831 831 831 831 830
716 723 720 728 749 755 754 765 778 787 790 780 775 773 764 761 750 728 724 724 714 711 711 714 718 717 717 717 716 716 717 720 723 725 728 730 731 734 737 740 743 745 748 751 754 758 761 763 765 767 769 771 774 778 780 782 784 786 788 790 792 796 798 802 804 806 808 809 811 813 814 816 817 819 820 821 822 822 823 824 825 826 827 828 829 829 830 829 829 829 829 829 830 830 830 829 829
712 716 720 725 736 745 748 754 758 768 782 781 775 777 766 748 733 720 716 715 711 708 709 712 713 709 709 710 710 713 716 717 720 722 724 725 727 730 732 735 738 741 744 747 752 756 757 759 762 764 767 769 773 776 777 779 781 783 785 787 790 793 796 799 801 803 806 808 810 812 813 815 816 817 818 819 821 821 822 823 823 825 826 826 827 828 828 828 828 827 827 827 828 828 828 828 827
722 726 731 730 730 735 740 746 747 750 766 774 773 774 756 728 717 712 704 703 704 703 703 705 705 702 701 703 706 710 712 713 715 717 718 720 722 725 728 732 735 738 743 747 750 753 754 757 759 761 763 767 769 771 773 775 777 779 782 784 787 790 793 796 798 800 803 806 810 812 813 814 815 816 817 818 819 821 821 822 822 823 824 825 825 826 826 827 826 826 826 826 826 826 827 826 826
716 722 727 727 728 735 745 754 752 744 751 758 760 763 742 711 705 704 696 697 699 698 698 698 698 697 697 699 702 704 706 708 710 710 712 715 718 722 726 730 734 738 741 744 745 748 750 752 754 755 759 762 764 766 768 771 774 776 778 779 781 785 789 793 795 798 800 803 807 811 812 813 814 815 816 817 818 819 820 820 821 822 823 823 823 824 824 824 824 824 823 824 824 824 824 824 824